Bemidji, MN

2:40 PM CST on February 20, 2017 (GMT -0600)
Bemidji-Beltrami County

Weather History for KBJI - July, 2014

Change the Weather History Date:

Tuesday, July 22, 2014

  Actual Average Record
Temperature  
Mean Temperature 66 °F -  
Max Temperature 75 °F 79 °F 93 °F (1984)
Min Temperature 57 °F 55 °F 43 °F (1985)
Cooling Degree Days 1    
Growing Degree Days 16 (Base 50)    
Moisture  
Dew Point 57 °F    
Average Humidity 72    
Maximum Humidity 98    
Minimum Humidity 44    
Precipitation  
Precipitation 0.04 in - - ()
Sea Level Pressure  
Sea Level Pressure 30.02 in    
Wind  
Wind Speed 11 mph (NW)    
Max Wind Speed 22 mph    
Max Gust Speed 29 mph    
Visibility 10 miles    
Events Rain    
Averages and records for this station are not official NWS values.
T = Trace of Precipitation, MM = Missing Value Source: NWS Daily Summary

Daily Weather History Graph

Daily Weather History Graph

Search for Another Location

Airport or City:

Trip Planner

Search our weather history database for the weather conditions in past years. The results will help you decide how hot, cold, wet, or windy it might be!

Date:

Astronomy

Jul. 22, 2014 Rise Set
Actual Time 5:45 AM CDT 9:06 PM CDT
Civil Twilight 5:07 AM CDT 9:43 PM CDT
Nautical Twilight 4:18 AM CDT 10:32 PM CDT
Astronomical Twilight 3:14 AM CDT 11:35 PM CDT
Moon 2:22 AM CDT (7/22) 5:42 PM CDT (7/22)
Length of Visible Light 16h 35m
Length of Day
15h 20m
Waning Crescent, 16% of the Moon is Illuminated
Jul 22
Waning Crescent
Jul 26
New
Aug 3
First Quarter
Aug 10
Full
Aug 17
Last Quarter

Hourly Weather History & Observations

Time (CDT) Temp. Dew Point Humidity Pressure Visibility Wind Dir Wind Speed Gust Speed Precip Events Conditions
12:10 AM 65.3 °F 64.4 °F 97% 29.69 in 10.0 mi NNE 3.5 mph - 0.02 in Rain Rain
12:30 AM 65.7 °F 64.8 °F 97% 29.71 in 7.0 mi SE 12.7 mph - 0.07 in Rain Rain
12:50 AM 65.8 °F 64.8 °F 96% 29.72 in 10.0 mi SE 5.8 mph - 0.08 in Rain Light Rain
1:11 AM 65.8 °F 64.8 °F 96% 29.76 in 10.0 mi SW 5.8 mph - N/A   Overcast
1:30 AM 65.8 °F 64.8 °F 96% 29.75 in 10.0 mi SSW 5.8 mph - N/A   Overcast
1:50 AM 65.7 °F 64.6 °F 96% 29.75 in 10.0 mi SW 5.8 mph - N/A   Overcast
2:11 AM 65.3 °F 64.4 °F 97% 29.75 in 10.0 mi SSW 5.8 mph - N/A   Light Drizzle
2:30 AM 65.3 °F 64.4 °F 97% 29.74 in 5.0 mi Calm Calm - 0.01 in Rain Heavy Rain
2:50 AM 64.9 °F 64.4 °F 98% 29.75 in 7.0 mi North 5.8 mph - 0.02 in Rain Light Rain
3:10 AM 64.9 °F 64.4 °F 98% 29.78 in 7.0 mi NW 19.6 mph 23.0 mph 0.01 in Rain Heavy Rain
3:30 AM 64.6 °F 63.1 °F 95% 29.79 in 7.0 mi NNW 10.4 mph 24.2 mph 0.02 in Rain Light Rain
3:50 AM 64.4 °F 62.8 °F 94% 29.79 in 10.0 mi North 12.7 mph 19.6 mph 0.02 in Rain Light Rain
4:10 AM 63.9 °F 62.6 °F 96% 29.83 in 10.0 mi WNW 21.9 mph - N/A Rain Rain
4:30 AM 63.1 °F 61.7 °F 95% 29.83 in 10.0 mi NW 11.5 mph - N/A   Mostly Cloudy
4:50 AM 63.0 °F 61.7 °F 96% 29.86 in 10.0 mi West 15.0 mph - N/A   Mostly Cloudy
5:10 AM 63.0 °F 61.7 °F 96% 29.87 in 10.0 mi WNW 15.0 mph 20.7 mph N/A   Overcast
5:30 AM 63.0 °F 61.7 °F 96% 29.88 in 10.0 mi WNW 15.0 mph 20.7 mph N/A   Overcast
5:50 AM 63.0 °F 61.9 °F 96% 29.90 in 10.0 mi WNW 15.0 mph 21.9 mph N/A   Overcast
6:10 AM 62.8 °F 61.7 °F 96% 29.91 in 7.0 mi WNW 16.1 mph 21.9 mph N/A   Overcast
6:30 AM 62.1 °F 60.8 °F 96% 29.93 in 7.0 mi WNW 13.8 mph 25.3 mph N/A   Overcast
6:50 AM 61.9 °F 60.3 °F 94% 29.95 in 10.0 mi WNW 13.8 mph 24.2 mph N/A   Overcast
7:11 AM 62.1 °F 60.3 °F 94% 29.96 in 10.0 mi WNW 12.7 mph 20.7 mph N/A   Overcast
7:30 AM 62.6 °F 60.6 °F 93% 29.98 in 10.0 mi WNW 11.5 mph - N/A   Overcast
7:50 AM 62.1 °F 59.7 °F 92% 29.98 in 10.0 mi NW 15.0 mph - N/A   Overcast
8:11 AM 63.0 °F 59.7 °F 89% 29.99 in 10.0 mi NW 15.0 mph - N/A   Overcast
8:30 AM 63.3 °F 59.4 °F 87% 30.01 in 10.0 mi WNW 13.8 mph - N/A   Mostly Cloudy
8:50 AM 64.6 °F 59.7 °F 84% 30.01 in 10.0 mi NW 17.3 mph - N/A   Scattered Clouds
9:10 AM 65.7 °F 59.2 °F 80% 30.01 in 10.0 mi NW 15.0 mph 20.7 mph N/A   Clear
9:30 AM 67.1 °F 58.6 °F 74% 30.02 in 10.0 mi NW 12.7 mph - N/A   Clear
9:50 AM 68.2 °F 57.9 °F 70% 30.02 in 10.0 mi NW 17.3 mph 21.9 mph N/A   Clear
10:11 AM 69.3 °F 57.4 °F 66% 30.04 in 7.0 mi NW 15.0 mph 20.7 mph N/A   Clear
10:30 AM 70.3 °F 57.6 °F 64% 30.04 in 7.0 mi NW 12.7 mph - N/A   Clear
10:50 AM 70.0 °F 55.4 °F 60% 30.05 in 10.0 mi NW 15.0 mph - N/A   Clear
11:10 AM 71.4 °F 55.8 °F 58% 30.06 in 10.0 mi NW 16.1 mph 21.9 mph N/A   Clear
11:30 AM 71.1 °F 55.4 °F 58% 30.06 in 10.0 mi NW 18.4 mph 28.8 mph N/A   Clear
11:50 AM 71.8 °F 54.9 °F 55% 30.07 in 10.0 mi NNW 13.8 mph 20.7 mph N/A   Clear
12:10 PM 71.8 °F 53.6 °F 53% 30.07 in 10.0 mi NW 13.8 mph 20.7 mph N/A   Clear
12:30 PM 72.5 °F 53.8 °F 52% 30.07 in 10.0 mi NW 17.3 mph 23.0 mph N/A   Clear
12:50 PM 73.4 °F 53.4 °F 49% 30.08 in 7.0 mi NNW 16.1 mph - N/A   Clear
1:11 PM 73.4 °F 52.0 °F 47% 30.08 in 10.0 mi NW 16.1 mph 20.7 mph N/A   Clear
1:30 PM 73.6 °F 52.9 °F 48% 30.09 in 5.0 mi NNW 13.8 mph - N/A   Haze
1:50 PM 73.6 °F 54.1 °F 50% 30.10 in 10.0 mi NNW 12.7 mph 18.4 mph N/A   Scattered Clouds
2:10 PM 73.9 °F 51.3 °F 45% 30.10 in 10.0 mi North 13.8 mph 25.3 mph N/A   Scattered Clouds
2:30 PM 73.6 °F 50.5 °F 44% 30.11 in 10.0 mi NNW 18.4 mph 21.9 mph N/A   Clear
3:10 PM 74.5 °F 52.7 °F 46% 30.12 in 10.0 mi NW 17.3 mph 25.3 mph N/A   Clear
3:30 PM 74.3 °F 52.9 °F 47% 30.12 in 10.0 mi NNW 17.3 mph 24.2 mph N/A   Scattered Clouds
3:50 PM 75.0 °F 52.3 °F 45% 30.13 in 10.0 mi NNW 13.8 mph 27.6 mph N/A   Clear
4:10 PM 75.4 °F 52.7 °F 45% 30.13 in 10.0 mi NW 15.0 mph 19.6 mph N/A   Mostly Cloudy
4:30 PM 75.4 °F 52.3 °F 44% 30.13 in 10.0 mi NW 13.8 mph 23.0 mph N/A   Mostly Cloudy
4:51 PM 74.7 °F 51.6 °F 44% 30.14 in 10.0 mi NNW 15.0 mph 21.9 mph N/A   Scattered Clouds
5:10 PM 74.3 °F 51.3 °F 44% 30.14 in 10.0 mi NNW 12.7 mph 18.4 mph N/A   Clear
5:30 PM 74.1 °F 51.3 °F 45% 30.15 in 10.0 mi NW 17.3 mph 20.7 mph N/A   Clear
5:50 PM 74.7 °F 51.4 °F 44% 30.15 in 10.0 mi NW 15.0 mph - N/A   Clear
6:10 PM 73.6 °F 50.7 °F 45% 30.16 in 10.0 mi NNW 15.0 mph - N/A   Clear
6:30 PM 73.6 °F 51.4 °F 46% 30.16 in 10.0 mi North 10.4 mph - N/A   Clear
6:51 PM 73.0 °F 50.4 °F 45% 30.16 in 10.0 mi NNW 10.4 mph - N/A   Clear
7:10 PM 72.7 °F 51.1 °F 47% 30.17 in 10.0 mi NNW 9.2 mph - N/A   Clear
7:30 PM 72.1 °F 51.8 °F 49% 30.17 in 10.0 mi NW 9.2 mph - N/A   Clear
7:50 PM 71.2 °F 52.7 °F 52% 30.18 in 10.0 mi NNW 9.2 mph - N/A   Clear
8:10 PM 69.8 °F 54.0 °F 57% 30.18 in 10.0 mi NW 5.8 mph - N/A   Clear
8:30 PM 68.0 °F 54.5 °F 62% 30.19 in 10.0 mi NW 6.9 mph - N/A   Clear
8:51 PM 65.3 °F 54.3 °F 68% 30.19 in 10.0 mi NW 5.8 mph - N/A   Clear
9:10 PM 63.7 °F 54.0 °F 71% 30.19 in 10.0 mi WNW 4.6 mph - N/A   Scattered Clouds
9:30 PM 62.6 °F 53.6 °F 72% 30.19 in 10.0 mi WNW 3.5 mph - N/A   Clear
9:50 PM 62.4 °F 53.6 °F 73% 30.20 in 10.0 mi WNW 3.5 mph - N/A   Clear
10:11 PM 61.0 °F 53.6 °F 77% 30.21 in 10.0 mi WNW 4.6 mph - N/A   Clear
10:30 PM 59.5 °F 53.2 °F 80% 30.22 in 10.0 mi WNW 3.5 mph - N/A   Clear
10:50 PM 59.7 °F 53.1 °F 79% 30.22 in 10.0 mi WNW 4.6 mph - N/A   Clear
11:10 PM 58.3 °F 52.7 °F 82% 30.23 in 10.0 mi WNW 4.6 mph - N/A   Clear
11:30 PM 57.6 °F 52.5 °F 83% 30.23 in 10.0 mi WNW 4.6 mph - N/A   Clear
11:50 PM 57.7 °F 52.7 °F 83% 30.23 in 10.0 mi NNW 4.6 mph - N/A   Scattered Clouds